Mumbai, India

5:34 PM IST on June 27, 2017 (GMT +0530)
Chhatrapati Shivaji International

Weather History for VABB - May, 2013

Change the Weather History Date:

Tuesday, May 21, 2013

  Actual Average Record
Temperature  
Mean Temperature 87 °F -  
Max Temperature 93 °F 87 °F 94 °F (2016)
Min Temperature 81 °F 78 °F 77 °F (2012)
Cooling Degree Days 22    
Growing Degree Days 37 (Base 50)    
Moisture  
Dew Point 75 °F    
Average Humidity 67    
Maximum Humidity 79    
Minimum Humidity 46    
Precipitation  
Precipitation 0.00 in - - ()
Sea Level Pressure  
Sea Level Pressure 29.76 in    
Wind  
Wind Speed 7 mph ()    
Max Wind Speed 14 mph    
Max Gust Speed 25 mph    
Visibility 3.3 miles    
Events      
Averages and records for this station are not official NWS values.
T = Trace of Precipitation, MM = Missing Value Source: Averaged Metar Reports

Daily Weather History Graph

Daily Weather History Graph

Search for Another Location

Airport or City:

Trip Planner

Search our weather history database for the weather conditions in past years. The results will help you decide how hot, cold, wet, or windy it might be!

Date:

Astronomy

May. 21, 2013 Rise Set
Actual Time 6:02 AM IST 7:08 PM IST
Civil Twilight 5:38 AM IST 7:32 PM IST
Nautical Twilight 5:10 AM IST 8:00 PM IST
Astronomical Twilight 4:41 AM IST 8:29 PM IST
Moon 3:21 PM IST (5/21) 2:39 AM IST (5/21)
Length of Visible Light 13h 53m
Length of Day
13h 06m
Waxing Gibbous, 80% of the Moon is Illuminated
May 21
Waxing Gibbous
May 25
Full
Jun 1
Last Quarter
Jun 8
New
Jun 16
First Quarter

Hourly Weather History & Observations

Time (IST) Temp. Heat Index Dew Point Humidity Pressure Visibility Wind Dir Wind Speed Gust Speed Precip Events Conditions
12:10 AM 86.0 °F 96.9 °F 77.0 °F 74% 29.74 in 3.1 mi West 6.9 mph - N/A   Haze
12:40 AM 86.0 °F 96.9 °F 77.0 °F 74% 29.74 in 3.1 mi West 6.9 mph - N/A   Haze
1:10 AM 84.2 °F 94.1 °F 77.0 °F 79% 29.74 in 3.1 mi West 6.9 mph - N/A   Haze
1:40 AM 84.2 °F 94.1 °F 77.0 °F 79% 29.74 in 3.1 mi West 5.8 mph - N/A   Haze
2:10 AM 84.2 °F 92.3 °F 75.2 °F 74% 29.71 in 3.1 mi WNW 6.9 mph - N/A   Haze
2:30 AM 84 °F - 76 °F 72% 29.71 in 1 mi West 3.5 mph - -   Haze
2:40 AM 84.2 °F 92.3 °F 75.2 °F 74% 29.71 in 3.1 mi WSW 5.8 mph - N/A   Haze
3:10 AM 84.2 °F 92.3 °F 75.2 °F 74% 29.71 in 3.1 mi SSW 5.8 mph - N/A   Haze
3:40 AM 84.2 °F 94.1 °F 77.0 °F 79% 29.71 in 3.1 mi SW 5.8 mph - N/A   Haze
4:10 AM 84.2 °F 92.3 °F 75.2 °F 74% 29.71 in 3.1 mi WSW 5.8 mph - N/A   Haze
4:40 AM 84.2 °F 92.3 °F 75.2 °F 74% 29.71 in 3.1 mi SW 5.8 mph - N/A   Haze
5:10 AM 84.2 °F 92.3 °F 75.2 °F 74% 29.74 in 3.1 mi SSW 5.8 mph - N/A   Haze
5:30 AM 84 °F - 76 °F 71% 29.73 in 1 mi WSW 3.5 mph - -   Haze
5:40 AM 84.2 °F 92.3 °F 75.2 °F 74% 29.74 in 3.1 mi SSW 6.9 mph - N/A   Haze
6:10 AM 84.2 °F 92.3 °F 75.2 °F 74% 29.77 in 3.1 mi South 6.9 mph - N/A   Haze
6:40 AM 84.2 °F 92.3 °F 75.2 °F 74% 29.77 in 3.1 mi South 5.8 mph - N/A   Haze
7:10 AM 84.2 °F 92.3 °F 75.2 °F 74% 29.80 in 3.1 mi SSW 8.1 mph - N/A   Haze
7:40 AM 86.0 °F 95.1 °F 75.2 °F 70% 29.80 in 3.1 mi South 9.2 mph - N/A   Haze
8:10 AM 86.0 °F 95.1 °F 75.2 °F 70% 29.80 in 3.1 mi SW 11.5 mph - N/A   Smoke
8:30 AM 89 °F - 75 °F 55% 29.82 in 1 mi SW 9.2 mph - -   Smoke
8:40 AM 87.8 °F 97.6 °F 75.2 °F 66% 29.83 in 3.1 mi SSW 11.5 mph 23.0 mph N/A   Smoke
9:10 AM 87.8 °F 95.6 °F 73.4 °F 62% 29.83 in 3.1 mi SSW 12.7 mph 24.2 mph N/A   Smoke
9:40 AM 87.8 °F 95.6 °F 73.4 °F 62% 29.83 in 3.7 mi SW 9.2 mph 20.7 mph N/A   Scattered Clouds
10:10 AM 89.6 °F 98.2 °F 73.4 °F 59% 29.83 in 4.3 mi SW 11.5 mph 23.0 mph N/A   Scattered Clouds
10:40 AM 89.6 °F 99.8 °F 75.2 °F 62% 29.83 in 4.3 mi SW 11.5 mph 23.0 mph N/A   Scattered Clouds
11:10 AM 89.6 °F 98.2 °F 73.4 °F 59% 29.83 in 4.3 mi SW 8.1 mph 19.6 mph N/A   Scattered Clouds
11:30 AM 91 °F - 75 °F 51% 29.83 in 2 mi SW 9.2 mph - -   Mostly Cloudy
12:10 PM 91.4 °F 95.4 °F 68.0 °F 46% 29.83 in 4.3 mi SW 12.7 mph 24.2 mph N/A   Scattered Clouds
12:40 PM 89.6 °F 96.2 °F 71.6 °F 55% 29.80 in 4.3 mi WSW 8.1 mph 19.6 mph N/A   Scattered Clouds
1:10 PM 89.6 °F 96.2 °F 71.6 °F 55% 29.80 in 4.3 mi WSW 13.8 mph 25.3 mph N/A   Partly Cloudy
1:40 PM 89.6 °F 96.2 °F 71.6 °F 55% 29.80 in 4.3 mi SW 9.2 mph - N/A   Partly Cloudy
2:10 PM 89.6 °F 94.7 °F 69.8 °F 52% 29.77 in 3.7 mi WSW 9.2 mph 20.7 mph N/A   Partly Cloudy
2:30 PM 93 °F - 74 °F 46% 29.77 in 6 mi NW 4.6 mph - -   Partly Cloudy
2:40 PM 89.6 °F 96.2 °F 71.6 °F 55% 29.77 in 3.7 mi WSW 8.1 mph 19.6 mph N/A   Partly Cloudy
3:10 PM 89.6 °F 96.2 °F 71.6 °F 55% 29.74 in 3.7 mi West 8.1 mph 19.6 mph N/A   Partly Cloudy
3:40 PM 89.6 °F 99.8 °F 75.2 °F 62% 29.74 in 3.7 mi West 12.7 mph - N/A   Partly Cloudy
4:10 PM 89.6 °F 98.2 °F 73.4 °F 59% 29.74 in 3.7 mi West 11.5 mph - N/A   Partly Cloudy
4:40 PM 87.8 °F 95.6 °F 73.4 °F 62% 29.74 in 3.7 mi West 11.5 mph - N/A   Scattered Clouds
5:10 PM 87.8 °F 95.6 °F 73.4 °F 62% 29.71 in 3.7 mi West 12.7 mph - N/A   Scattered Clouds
5:30 PM 90 °F - 76 °F 54% 29.73 in 2 mi West 5.8 mph - -   Mostly Cloudy
5:40 PM 87.8 °F 97.6 °F 75.2 °F 66% 29.74 in 3.7 mi West 11.5 mph - N/A   Scattered Clouds
6:10 PM 87.8 °F 97.6 °F 75.2 °F 66% 29.74 in 3.7 mi West 10.4 mph - N/A   Scattered Clouds
6:40 PM 86.0 °F 95.1 °F 75.2 °F 70% 29.74 in 3.7 mi West 9.2 mph - N/A   Scattered Clouds
7:10 PM 86.0 °F 95.1 °F 75.2 °F 70% 29.74 in 3.7 mi West 9.2 mph - N/A   Scattered Clouds
7:40 PM 86.0 °F 96.9 °F 77.0 °F 74% 29.74 in 3.7 mi West 8.1 mph - N/A   Scattered Clouds
8:10 PM 86.0 °F 95.1 °F 75.2 °F 70% 29.74 in 3.7 mi West 8.1 mph - N/A   Scattered Clouds
8:30 PM 86 °F - 77 °F 69% 29.73 in 1 mi NW 4.6 mph - -   Haze
8:40 PM 86.0 °F 95.1 °F 75.2 °F 70% 29.77 in 3.7 mi West 6.9 mph - N/A   Scattered Clouds
9:10 PM 86.0 °F 96.9 °F 77.0 °F 74% 29.77 in 3.7 mi West 6.9 mph - N/A   Scattered Clouds
9:40 PM 86.0 °F 96.9 °F 77.0 °F 74% 29.77 in 3.7 mi West 6.9 mph - N/A   Scattered Clouds
10:10 PM 86.0 °F 96.9 °F 77.0 °F 74% 29.77 in 3.7 mi West 6.9 mph - N/A   Scattered Clouds
10:40 PM 86.0 °F 96.9 °F 77.0 °F 74% 29.77 in 3.7 mi West 6.9 mph - N/A   Scattered Clouds
11:10 PM 86.0 °F 96.9 °F 77.0 °F 74% 29.77 in 3.7 mi West 8.1 mph - N/A   Scattered Clouds
11:30 PM 86 °F - 77 °F 69% 29.78 in 1 mi NW 4.6 mph - -   Haze